Weather History for KLEX - March, 2014

Change the Weather History Date:

Tuesday, March 25, 2014

  Actual Average Record
Temperature  
Mean Temperature 32 °F 48 °F  
Max Temperature 38 °F 59 °F 86 °F (1929)
Min Temperature 25 °F 38 °F 16 °F (1960)
Degree Days  
Heating Degree Days 33 17  
Month to date heating degree days 602 512  
Since 1 July heating degree days 4445 4083  
Cooling Degree Days 0 0  
Month to date cooling degree days 0 0  
Year to date cooling degree days 0 0  
Moisture  
Dew Point 26 °F    
Average Humidity 69    
Maximum Humidity 92    
Minimum Humidity 45    
Precipitation  
Precipitation 0.13 in 0.14 in 1.79 in (1913)
Month to date precipitation 1.88 3.27  
Year to date precipitation 8.92 9.67  
Snow  
Snow 2.00 in 0.00 in 2.00 in (2014)
Month to date snowfall 7.5 1.2  
Since 1 July snowfall 26.8 12.5  
Snow Depth T in    
Sea Level Pressure  
Sea Level Pressure 30.05 in    
Wind  
Wind Speed 10 mph (NW)    
Max Wind Speed 28 mph    
Max Gust Speed 35 mph    
Visibility 4 miles    
Events Fog , Snow    
T = Trace of Precipitation, MM = Missing Value Source: NWS Daily Summary

Daily Weather History Graph

Daily Weather History Graph

Search for Another Location

Airport or City:

Trip Planner

Search our weather history database for the weather conditions in past years. The results will help you decide how hot, cold, wet, or windy it might be!

Date:

Astronomy

Mar. 25, 2014 Rise Set
Actual Time 7:34 AM EDT 7:55 PM EDT
Civil Twilight 7:07 AM EDT 8:21 PM EDT
Nautical Twilight 6:37 AM EDT 8:52 PM EDT
Astronomical Twilight 6:05 AM EDT 9:23 PM EDT
Moon 3:50 AM EDT (3/25) 2:29 PM EDT (3/25)
Length of Visible Light 13h 13m
Length of Day
12h 20m
Waning Crescent, 32% of the Moon is Illuminated
Mar 25
Waning Crescent
Mar 30
New
Apr 7
First Quarter
Apr 15
Full
Apr 22
Last Quarter

Hourly Weather History & Observations

Time (EDT) Temp. Windchill Dew Point Humidity Pressure Visibility Wind Dir Wind Speed Gust Speed Precip Events Conditions
12:54 AM 34.0 °F 26.6 °F 26.1 °F 73% 30.09 in 10.0 mi NNE 9.2 mph - N/A   Overcast
1:54 AM 33.1 °F 26.9 °F 25.0 °F 72% 30.10 in 10.0 mi NNE 6.9 mph - N/A   Overcast
2:54 AM 32.0 °F 26.4 °F 26.1 °F 79% 30.09 in 5.0 mi North 5.8 mph - 0.00 in Snow Light Snow
3:50 AM 30.2 °F 25.4 °F 28.4 °F 93% 30.03 in 3.0 mi North 4.6 mph - 0.00 in Snow Light Snow
3:54 AM 30.9 °F 25.2 °F 28.0 °F 89% 30.05 in 3.0 mi North 5.8 mph - 0.01 in Snow Light Snow
4:24 AM 30.9 °F 26.2 °F 28.0 °F 89% 30.02 in 4.0 mi NNW 4.6 mph - 0.00 in   Overcast
4:35 AM 30.9 °F 26.2 °F 28.0 °F 89% 30.01 in 4.0 mi North 4.6 mph - 0.00 in Snow Light Snow
4:54 AM 30.9 °F 26.2 °F 28.0 °F 89% 30.03 in 3.0 mi North 4.6 mph - 0.00 in Snow Light Snow
5:07 AM 30.9 °F 27.5 °F 28.0 °F 89% 30.01 in 2.0 mi NNW 3.5 mph - 0.00 in Snow Light Snow
5:18 AM 30.0 °F 26.5 °F 28.0 °F 92% 30.01 in 2.0 mi NW 3.5 mph - 0.00 in Snow Light Snow
5:54 AM 30.0 °F 26.5 °F 28.0 °F 92% 30.03 in 2.0 mi NNW 3.5 mph - 0.00 in Snow Light Snow
6:28 AM 30.0 °F 26.5 °F 28.0 °F 92% 30.00 in 1.5 mi NNW 3.5 mph - 0.01 in Snow Light Snow
6:36 AM 30.0 °F 25.2 °F 28.0 °F 92% 30.00 in 2.0 mi NNW 4.6 mph - 0.01 in Snow Light Snow
6:49 AM 30.2 °F 24.3 °F 28.4 °F 93% 30.00 in 1.8 mi NW 5.8 mph - 0.02 in Snow Light Snow
6:54 AM 30.0 °F 23.2 °F 28.0 °F 92% 30.02 in 2.5 mi NNW 6.9 mph - 0.02 in Snow Light Snow
7:29 AM 30.0 °F 25.2 °F 28.0 °F 92% 29.99 in 1.5 mi NNW 4.6 mph - 0.00 in Snow Light Snow
7:44 AM 30.0 °F 24.1 °F 28.0 °F 92% 29.99 in 0.8 mi NW 5.8 mph - 0.00 in Snow Light Snow
7:54 AM 30.0 °F 24.1 °F 28.0 °F 92% 30.01 in 0.5 mi NW 5.8 mph - 0.00 in Fog , Snow Snow
8:17 AM 30.0 °F 23.2 °F 28.0 °F 92% 30.00 in 0.5 mi NW 6.9 mph - 0.02 in Fog , Snow Snow
8:29 AM 30.0 °F 22.4 °F 28.0 °F 92% 30.00 in 0.8 mi NW 8.1 mph - 0.02 in Snow Light Snow
8:46 AM 30.0 °F 21.7 °F 27.0 °F 88% 30.00 in 1.0 mi NW 9.2 mph - 0.03 in Snow Light Snow
8:54 AM 30.0 °F 21.1 °F 27.0 °F 88% 30.02 in 0.8 mi NW 10.4 mph - 0.03 in Snow Light Snow
9:54 AM 30.0 °F 21.7 °F 27.0 °F 88% 30.03 in 1.2 mi WNW 9.2 mph - 0.02 in Snow Light Snow
10:07 AM 30.9 °F 23.5 °F 26.1 °F 82% 30.01 in 2.5 mi WNW 8.1 mph - 0.00 in Snow Light Snow
10:16 AM 30.9 °F 21.7 °F 26.1 °F 82% 30.02 in 4.0 mi NW 11.5 mph - 0.00 in   Haze
10:42 AM 32.0 °F 23.6 °F 27.0 °F 82% 30.02 in 3.0 mi NW 10.4 mph - 0.00 in Snow Light Snow
10:54 AM 32.0 °F 24.2 °F 27.0 °F 82% 30.04 in 4.0 mi NW 9.2 mph - 0.00 in Snow Light Snow
11:11 AM 33.1 °F 24.9 °F 27.0 °F 78% 30.03 in 5.0 mi WNW 10.4 mph - 0.00 in Snow Light Snow
11:20 AM 33.1 °F 24.9 °F 27.0 °F 78% 30.03 in 8.0 mi NW 10.4 mph - 0.00 in   Overcast
11:31 AM 32.0 °F 23.6 °F 27.0 °F 82% 30.03 in 3.0 mi WNW 10.4 mph - 0.00 in Snow Light Snow
11:47 AM 34.0 °F 25.5 °F 26.1 °F 73% 30.03 in 10.0 mi WNW 11.5 mph - 0.00 in   Overcast
11:54 AM 35.1 °F 27.4 °F 26.1 °F 70% 30.05 in 10.0 mi WNW 10.4 mph - 0.00 in   Overcast
12:02 PM 33.1 °F 22.6 °F 26.1 °F 75% 30.03 in 1.8 mi West 16.1 mph 20.7 mph 0.00 in Snow Light Snow
12:06 PM 30.9 °F 22.2 °F 27.0 °F 85% 30.03 in 0.8 mi WNW 10.4 mph 20.7 mph 0.00 in Snow Light Snow
12:15 PM 32.0 °F 23.0 °F 26.1 °F 79% 30.03 in 2.5 mi WNW 11.5 mph - 0.00 in Snow Light Snow
12:22 PM 34.0 °F 27.2 °F 27.0 °F 75% 30.03 in 7.0 mi WNW 8.1 mph - 0.00 in   Overcast
12:54 PM 35.1 °F 27.9 °F 26.1 °F 70% 30.05 in 10.0 mi NW 9.2 mph - 0.00 in   Overcast
1:54 PM 35.1 °F 27.9 °F 26.1 °F 70% 30.04 in 7.0 mi NW 9.2 mph - 0.00 in Snow Light Snow
2:02 PM 35.1 °F 25.9 °F 26.1 °F 70% 30.01 in 9.0 mi West 13.8 mph 18.4 mph 0.00 in   Overcast
2:29 PM 37.0 °F 27.7 °F 28.0 °F 70% 30.01 in 9.0 mi West 16.1 mph 25.3 mph 0.00 in   Overcast
2:54 PM 35.1 °F 25.9 °F 27.0 °F 72% 30.03 in 5.0 mi WNW 13.8 mph 21.9 mph 0.00 in Snow Light Snow
3:01 PM 33.1 °F 23.4 °F 27.0 °F 78% 30.01 in 0.5 mi WNW 13.8 mph 21.9 mph 0.00 in Snow Heavy Snow
3:08 PM 33.1 °F 25.5 °F 28.9 °F 85% 30.01 in 0.5 mi West 9.2 mph 20.7 mph 0.01 in Fog , Snow Heavy Snow
3:19 PM 34.0 °F 25.5 °F 28.9 °F 82% 30.01 in 5.0 mi West 11.5 mph 18.4 mph 0.01 in   Overcast
3:33 PM 32.0 °F 19.8 °F 28.0 °F 85% 30.02 in 0.5 mi WNW 20.7 mph 35.7 mph 0.01 in Snow Snow
3:45 PM 28.9 °F 16.1 °F 27.0 °F 92% 30.03 in 0.5 mi WNW 19.6 mph 32.2 mph 0.02 in Snow Snow
3:54 PM 30.0 °F 19.1 °F 28.0 °F 92% 30.06 in 0.8 mi NW 15.0 mph 28.8 mph 0.05 in Snow Light Snow
4:03 PM 30.9 °F 19.1 °F 28.0 °F 89% 30.04 in 1.0 mi NW 18.4 mph 23.0 mph 0.00 in Snow Light Snow
4:07 PM 30.0 °F 19.1 °F 27.0 °F 88% 30.04 in 2.0 mi NW 15.0 mph 23.0 mph 0.00 in Snow Light Snow
4:21 PM 32.0 °F 21.6 °F 27.0 °F 82% 30.04 in 2.0 mi NW 15.0 mph 29.9 mph 0.00 in Snow Light Snow
4:23 PM 32.0 °F 20.8 °F 28.0 °F 85% 30.04 in 1.8 mi WNW 17.3 mph 29.9 mph 0.00 in Snow Light Snow
4:26 PM 32.0 °F 21.6 °F 28.0 °F 85% 30.05 in 2.0 mi WNW 15.0 mph 29.9 mph 0.00 in Snow Light Snow
4:35 PM 33.1 °F 22.6 °F 27.0 °F 78% 30.05 in 3.0 mi NW 16.1 mph 26.5 mph 0.00 in   Haze
4:54 PM 32.0 °F 20.8 °F 26.1 °F 79% 30.08 in 5.0 mi WNW 17.3 mph 25.3 mph 0.00 in   Haze
4:58 PM 32.0 °F 21.2 °F 26.1 °F 79% 30.06 in 1.8 mi WNW 16.1 mph 26.5 mph 0.00 in Snow Light Snow
5:04 PM 33.1 °F 22.2 °F 25.0 °F 72% 30.06 in 3.0 mi NW 17.3 mph 26.5 mph 0.00 in Snow Light Snow
5:54 PM 35.1 °F 24.8 °F 19.9 °F 54% 30.10 in 10.0 mi NW 17.3 mph 27.6 mph 0.00 in   Partly Cloudy
6:54 PM 34.0 °F 23.4 °F 19.0 °F 54% 30.12 in 10.0 mi WNW 17.3 mph 21.9 mph N/A   Scattered Clouds
7:54 PM 32.0 °F 21.6 °F 14.0 °F 48% 30.14 in 10.0 mi WNW 15.0 mph - N/A   Partly Cloudy
8:54 PM 30.0 °F 20.5 °F 15.1 °F 54% 30.17 in 10.0 mi WNW 11.5 mph - N/A   Clear
9:54 PM 28.9 °F 19.2 °F 16.0 °F 58% 30.19 in 10.0 mi WNW 11.5 mph - N/A   Partly Cloudy
10:54 PM 28.0 °F 19.3 °F 15.1 °F 58% 30.21 in 10.0 mi WNW 9.2 mph - N/A   Scattered Clouds
11:54 PM 26.1 °F 19.4 °F 15.1 °F 63% 30.22 in 10.0 mi WNW 5.8 mph - N/A   Partly Cloudy